This is the latest recevied weather packets stored in our database for station/object 4S6DRJ-13. If no packets are shown the sender has not sent any weather packets the latest 10 day(s).
| Time | Temp. | Humidity | Pressure | Rain* | Wind** | Luminosity | Snow |
|---|---|---|---|---|---|---|---|
| 1787802230 | 30° C | 77% | 1010.9 hPa | 0 mm | 1.34 m/s, 340° | 858 W/m² | - |
| 1787802169 | 30° C | 77% | 1011 hPa | 0 mm | 1.34 m/s, 260° | 792 W/m² | - |
| 1787802109 | 30° C | 78% | 1011 hPa | 0 mm | 0.45 m/s, 235° | 770 W/m² | - |
| 1787802047 | 30° C | 78% | 1011 hPa | 0 mm | 0.89 m/s, 256° | 775 W/m² | - |
| 1787801986 | 30° C | 77% | 1011 hPa | 0 mm | 1.34 m/s, 199° | 624 W/m² | - |
| 1787801926 | 30° C | 78% | 1011 hPa | 0 mm | 1.34 m/s, 247° | 763 W/m² | - |
| 1787801865 | 30° C | 77% | 1010.9 hPa | 0 mm | 2.68 m/s, 225° | 768 W/m² | - |
| 1787801803 | 30° C | 77% | 1010.9 hPa | 0 mm | 0.89 m/s, 227° | 786 W/m² | - |
| 1787801748 | 29.44° C | 78% | 1010.9 hPa | 0 mm | 1.79 m/s, 245° | 797 W/m² | - |
| 1787801681 | 29.44° C | 78% | 1010.9 hPa | 0 mm | 1.34 m/s, 249° | 782 W/m² | - |
| 1787801620 | 29.44° C | 77% | 1010.9 hPa | 0 mm | 2.68 m/s, 302° | 530 W/m² | - |
| 1787801559 | 29.44° C | 78% | 1010.7 hPa | 0 mm | 0.45 m/s, 49° | 769 W/m² | - |
| 1787801498 | 29.44° C | 77% | 1010.9 hPa | 0 mm | 1.34 m/s, 63° | 733 W/m² | - |
| 1787801437 | 29.44° C | 78% | 1010.9 hPa | 0 mm | 0.89 m/s, 240° | 721 W/m² | - |
| 1787801376 | 29.44° C | 77% | 1010.8 hPa | 0 mm | 3.13 m/s, 217° | 719 W/m² | - |
| 1787801315 | 29.44° C | 77% | 1011 hPa | 0 mm | 2.68 m/s, 335° | 595 W/m² | - |
| 1787801254 | 29.44° C | 78% | 1010.8 hPa | 0 mm | 1.79 m/s, 328° | 299 W/m² | - |
| 1787801193 | 29.44° C | 77% | 1010.9 hPa | 0 mm | 2.68 m/s, 299° | 794 W/m² | - |
| 1787801132 | 29.44° C | 78% | 1010.9 hPa | 0 mm | 1.34 m/s, 59° | 776 W/m² | - |
| 1787801071 | 29.44° C | 78% | 1010.9 hPa | 0 mm | 1.34 m/s, 241° | 753 W/m² | - |
| 1787801010 | 29.44° C | 78% | 1010.9 hPa | 0 mm | 1.34 m/s, 257° | 748 W/m² | - |
| 1787800949 | 29.44° C | 78% | 1011 hPa | 0 mm | 0.89 m/s, 206° | 766 W/m² | - |
| 1787800888 | 29.44° C | 77% | 1011.1 hPa | 0 mm | 2.24 m/s, 238° | 802 W/m² | - |
| 1787800827 | 29.44° C | 77% | 1011 hPa | 0 mm | 2.24 m/s, 170° | 797 W/m² | - |
| 1787800767 | 29.44° C | 78% | 1010.9 hPa | 0 mm | 0.45 m/s, 198° | 445 W/m² | - |
* Rain latest hour (hover to see other rain measurements)
** Current wind speed in m/s (hover to see current wind gust speed)